Regional Weather Roundup
Issued by NWS Mt. Holly, NJ

Home | Current Version | Previous Version | Text Only | Print | Product List | Glossary On
Versions: 1 2 3 4 5 6 7 8 9 10 11 12 13 14 15 16 17 18 19 20 21 22 23 24 25 26 27 28 29 30 31 32 33 34 35 36 37 38 39 40 41 42 43 44 45 46 47 48 49 50
000
ASUS41 KPHI 050211
RWRPHI

REGIONAL WEATHER ROUNDUP
NATIONAL WEATHER SERVICE MOUNT HOLLY NJ
1000 PM EDT MON MAY 04 2015

NOTE:  "FAIR" INDICATES FEW OR NO CLOUDS BELOW 12,000 FEET WITH NO
SIGNIFICANT WEATHER AND/OR OBSTRUCTIONS TO VISIBILITY.

 * = STATION DOES NOT REPORT PRECIPITATION (E.G. RAIN, SNOW, ETC.)
        OR FOG.

NJZ015>026-050300-
SOUTHERN NEW JERSEY

CITY           SKY/WX    TMP DP  RH WIND       PRES   REMARKS
POMONA         CLEAR     68  45  43 S14       30.22R
RIO GRANDE*    CLEAR     64  45  48 S12         N/A
MILLVILLE      CLEAR     69  48  47 S6        30.22R
WRIGHTSTOWN    CLEAR     67  43  40 SW8       30.17R
MOUNT HOLLY    CLEAR     69  44  40 S6        30.19R
TRENTON        CLEAR     72  41  32 S9        30.17R

$$
NJZ001>014-050300-
NORTHERN NEW JERSEY

CITY           SKY/WX    TMP DP  RH WIND       PRES   REMARKS
SUSSEX         CLEAR     71  43  36 SW5       30.15R
ANDOVER*         N/A     71  46  40 S5        30.15R
MORRISTOWN     PTCLDY    72  41  33 SW8       30.15R
NEWARK         PTCLDY    74  44  34 S10       30.15R
TETERBORO      CLEAR     76  42  29 S9        30.13R
CALDWELL       CLEAR     75  41  29 VRB6      30.15R
SOMERVILLE     CLEAR     71  42  35 S5        30.14R
ALLAIRE*       CLEAR     72  39  30 S10       30.19S
TOMS RIVER*    CLEAR     66  43  42 S9        30.21R

$$
PAZ043-044-047-054-055-060>062-066>071-050300-
EASTERN PENNSYLVANIA

CITY           SKY/WX    TMP DP  RH WIND       PRES   REMARKS
PHILADELPHIA   PTCLDY    73  45  36 SW8       30.19R
NORTH PHILA    CLEAR     75  40  28 SW8       30.20R
BLUE BELL      CLEAR     73  46  38 S9        30.18R
DOYLESTOWN     CLEAR     71  43  36 VRB6      30.17R
QUAKERTOWN*    CLEAR     72  46  40 SW6       30.18R
POTTSTOWN      CLEAR     72  46  39 VRB5      30.19R
LANCASTER      CLEAR     71  49  45 S12       30.16R
COATESVILLE    CLEAR     70  48  46 S5        30.20R
READING        CLEAR     73  46  38 S8G18     30.15R
ALLENTOWN      PTCLDY    73  46  38 SW9       30.15R
MOUNT POCONO   PTCLDY    68  43  40 SW12      30.19R
HAZLETON       MOCLDY    70  45  40 S8        30.21R
WILKES BARRE   PTCLDY    76  43  30 VRB6      30.13R

$$
DEZALL-MDZ008-012-015-019-020-050300-
DELAWARE AND EASTERN MARYLAND

CITY           SKY/WX    TMP DP  RH WIND       PRES   REMARKS
WILMINGTON     CLEAR     71  50  47 S8        30.20R
DOVER          PTCLDY    72  48  43 SW3       30.19R
GEORGETOWN     CLEAR     68  45  43 S14G23    30.24R
EASTON         CLEAR     71  52  50 S9        30.25R
PATUXENT       PTCLDY    69  52  54 S8        30.21R
OCEAN CITY     CLEAR     64  51  62 SW14      30.26S
WALLOPS ISLAND CLEAR     62  53  72 S15       30.26S
CAMBRIDGE      CLEAR     72  52  49 S8        30.22S
SALISBURY      CLEAR     66  44  45 S10       30.24R

$$
PAZ001-021-NYZ056-072-MDZ011-DCZ001-050300-
OTHER NEARBY LOCATIONS

CITY           SKY/WX    TMP DP  RH WIND       PRES   REMARKS
HARRISBURG     PTCLDY    73  49  42 S7        30.14R
WILLIAMSPORT   PTCLDY    69  48  47 NW5       30.11R
BINGHAMTON     CLOUDY    69  47  45 N13       30.15R
NEW YORK CITY  CLEAR     74  43  32 VRB6      30.18R
BALTIMORE      PTCLDY    70  52  52 S3        30.18R
WASHINGTON DC  PTCLDY    72  56  57 S9        30.19R

$$



USA.gov is the U.S. government's official web portal to all federal, state and local government web resources and services.